Radiation Dose at Monitoring Post of Fukushima Daini Nuclear Power Station
Date,Time,MP-1(microSv/h),MP-2(microSv/h),MP-3(microSv/h),MP-4(microSv/h),MP-5(microSv/h),MP-6(microSv/h),MP-7(microSv/h),Wind Direction,Wind Velocity(m/s),Rain
2018/01/04,00:00,0.344,0.208,0.348,0.326,0.307,0.172,0.102,northwest,4.5,No
2018/01/04,00:10,0.344,0.209,0.347,0.325,0.306,0.172,0.103,northwest,5.2,No
2018/01/04,00:20,0.343,0.207,0.349,0.327,0.308,0.172,0.102,northwest,3.5,No
2018/01/04,00:30,0.344,0.208,0.350,0.326,0.306,0.172,0.103,northwest,3.4,No
2018/01/04,00:40,0.344,0.208,0.348,0.324,0.306,0.172,0.103,north-northwest,2.3,No
2018/01/04,00:50,0.344,0.208,0.347,0.326,0.306,0.172,0.103,northwest,0.8,No
2018/01/04,01:00,0.343,0.209,0.347,0.325,0.307,0.172,0.103,northwest,1.6,No
2018/01/04,01:10,0.343,0.208,0.349,0.326,0.308,0.172,0.103,west,1.4,No
2018/01/04,01:20,0.343,0.208,0.349,0.326,0.306,0.171,0.102,west-northwest,2.0,No
2018/01/04,01:30,0.343,0.207,0.349,0.325,0.306,0.172,0.103,west-northwest,2.2,No
2018/01/04,01:40,0.343,0.208,0.348,0.327,0.306,0.172,0.102,west-northwest,2.3,No
2018/01/04,01:50,0.343,0.208,0.348,0.325,0.306,0.172,0.102,west-northwest,3.0,No
2018/01/04,02:00,0.344,0.207,0.348,0.327,0.307,0.172,0.103,west-northwest,2.8,No
2018/01/04,02:10,0.342,0.207,0.348,0.326,0.307,0.170,0.102,northwest,3.5,No
2018/01/04,02:20,0.342,0.208,0.348,0.326,0.306,0.171,0.103,northwest,4.1,No
2018/01/04,02:30,0.343,0.208,0.347,0.326,0.306,0.172,0.102,north-northwest,5.7,No
2018/01/04,02:40,0.344,0.208,0.349,0.327,0.307,0.171,0.102,northwest,3.9,No
2018/01/04,02:50,0.344,0.207,0.348,0.325,0.305,0.171,0.103,northwest,4.1,No
2018/01/04,03:00,0.343,0.208,0.346,0.325,0.306,0.172,0.103,west-northwest,3.9,No
2018/01/04,03:10,0.343,0.208,0.347,0.326,0.307,0.171,0.102,northwest,4.8,No
2018/01/04,03:20,0.342,0.208,0.348,0.327,0.305,0.170,0.102,northwest,4.9,No
2018/01/04,03:30,0.345,0.208,0.347,0.327,0.307,0.171,0.102,northwest,4.8,No
2018/01/04,03:40,0.343,0.208,0.350,0.326,0.306,0.172,0.102,northwest,4.5,No
2018/01/04,03:50,0.344,0.208,0.348,0.325,0.307,0.171,0.102,northwest,5.5,No
2018/01/04,04:00,0.344,0.207,0.347,0.327,0.306,0.171,0.102,northwest,7.6,No
2018/01/04,04:10,0.342,0.208,0.346,0.326,0.306,0.171,0.103,northwest,7.4,No
2018/01/04,04:20,0.344,0.208,0.349,0.326,0.305,0.171,0.102,northwest,6.6,No
2018/01/04,04:30,0.343,0.208,0.349,0.325,0.305,0.171,0.102,northwest,4.2,No
2018/01/04,04:40,0.343,0.208,0.348,0.324,0.306,0.172,0.103,northwest,4.3,No
2018/01/04,04:50,0.343,0.208,0.349,0.326,0.306,0.172,0.102,northwest,4.8,No
2018/01/04,05:00,0.343,0.208,0.347,0.325,0.305,0.170,0.103,northwest,4.5,No
2018/01/04,05:10,0.344,0.208,0.348,0.325,0.305,0.171,0.101,northwest,3.8,No
2018/01/04,05:20,0.343,0.207,0.348,0.326,0.305,0.171,0.102,northwest,4.8,No
2018/01/04,05:30,0.345,0.207,0.347,0.325,0.305,0.171,0.102,northwest,6.3,No
2018/01/04,05:40,0.342,0.207,0.347,0.324,0.306,0.171,0.103,west-northwest,6.8,No
2018/01/04,05:50,0.342,0.207,0.348,0.325,0.306,0.172,0.103,west-northwest,5.0,No
2018/01/04,06:00,0.342,0.207,0.349,0.324,0.307,0.172,0.103,northwest,4.2,No
2018/01/04,06:10,0.341,0.207,0.347,0.325,0.306,0.172,0.102,northwest,4.1,No
2018/01/04,06:20,0.342,0.207,0.349,0.325,0.306,0.171,0.102,west-northwest,3.1,No
2018/01/04,06:30,0.343,0.206,0.347,0.325,0.305,0.171,0.102,northwest,3.0,No
2018/01/04,06:40,0.343,0.207,0.349,0.325,0.306,0.171,0.102,northwest,1.7,No
2018/01/04,06:50,0.343,0.208,0.348,0.325,0.306,0.171,0.102,north-northwest,0.8,No
2018/01/04,07:00,0.342,0.207,0.348,0.326,0.306,0.171,0.103,-,CALM,No
2018/01/04,07:10,0.342,0.206,0.347,0.324,0.307,0.171,0.102,northwest,1.3,No
2018/01/04,07:20,0.343,0.207,0.348,0.324,0.304,0.170,0.103,west-northwest,1.6,No
2018/01/04,07:30,0.343,0.208,0.347,0.325,0.307,0.171,0.102,west-northwest,1.5,No
2018/01/04,07:40,0.343,0.207,0.348,0.323,0.306,0.170,0.102,west-northwest,1.5,No
2018/01/04,07:50,0.343,0.207,0.349,0.325,0.307,0.171,0.102,northwest,2.9,No
2018/01/04,08:00,0.342,0.208,0.348,0.324,0.304,0.171,0.102,west-northwest,3.3,No
2018/01/04,08:10,0.343,0.207,0.347,0.325,0.305,0.171,0.102,northwest,3.6,No
2018/01/04,08:20,0.342,0.208,0.345,0.324,0.306,0.171,0.103,west-northwest,3.3,No
2018/01/04,08:30,0.343,0.207,0.346,0.323,0.305,0.172,0.103,northwest,2.8,No
2018/01/04,08:40,0.342,0.207,0.347,0.325,0.306,0.171,0.102,west,2.6,No
2018/01/04,08:50,0.342,0.208,0.347,0.324,0.305,0.171,0.102,west-northwest,2.2,No
2018/01/04,09:00,0.343,0.207,0.347,0.324,0.307,0.172,0.101,northwest,2.6,No
2018/01/04,09:10,0.341,0.208,0.348,0.323,0.305,0.171,0.102,north-northwest,3.1,No
2018/01/04,09:20,0.342,0.206,0.347,0.323,0.305,0.172,0.101,northwest,3.1,Yes
2018/01/04,09:30,0.344,0.205,0.348,0.323,0.306,0.170,0.102,west-northwest,2.5,No
2018/01/04,09:40,0.341,0.207,0.347,0.325,0.306,0.172,0.102,north-northwest,3.1,No
2018/01/04,09:50,0.342,0.206,0.348,0.324,0.306,0.170,0.102,west-northwest,2.5,No
2018/01/04,10:00,0.344,0.207,0.346,0.323,0.305,0.172,0.102,west-northwest,3.2,No
2018/01/04,10:10,0.344,0.207,0.346,0.325,0.306,0.171,0.103,west-northwest,2.9,No
2018/01/04,10:20,0.342,0.206,0.347,0.324,0.306,0.172,0.102,northwest,2.9,No
2018/01/04,10:30,0.341,0.207,0.348,0.325,0.305,0.171,0.102,west-northwest,2.6,No
2018/01/04,10:40,0.343,0.207,0.347,0.326,0.307,0.171,0.101,west-northwest,2.0,No
2018/01/04,10:50,0.341,0.208,0.347,0.324,0.307,0.171,0.102,north-northwest,2.0,No
2018/01/04,11:00,0.340,0.207,0.348,0.327,0.305,0.172,0.102,northeast,0.7,No
2018/01/04,11:10,0.342,0.208,0.347,0.326,0.308,0.171,0.101,east-northeast,1.4,No
2018/01/04,11:20,0.341,0.207,0.346,0.325,0.306,0.172,0.102,north-northeast,1.2,No
2018/01/04,11:30,0.343,0.208,0.348,0.323,0.309,0.172,0.102,northeast,1.5,No
2018/01/04,11:40,0.343,0.207,0.346,0.325,0.307,0.171,0.103,northeast,3.2,No
2018/01/04,11:50,0.343,0.206,0.347,0.326,0.307,0.171,0.103,east-northeast,2.0,No
2018/01/04,12:00,0.342,0.208,0.347,0.326,0.307,0.172,0.102,east-northeast,0.9,No
2018/01/04,12:10,0.344,0.207,0.349,0.327,0.308,0.172,0.103,east-northeast,2.6,No
2018/01/04,12:20,0.344,0.207,0.347,0.326,0.308,0.173,0.102,north-northeast,3.1,No
2018/01/04,12:30,0.342,0.208,0.346,0.326,0.306,0.172,0.102,northeast,3.3,No
2018/01/04,12:40,0.342,0.208,0.348,0.326,0.307,0.172,0.103,northeast,5.9,No
2018/01/04,12:50,0.345,0.207,0.348,0.327,0.307,0.171,0.103,north-northeast,5.4,No
2018/01/04,13:00,0.344,0.208,0.348,0.325,0.307,0.171,0.103,north-northeast,5.6,Yes
2018/01/04,13:10,0.344,0.209,0.348,0.327,0.307,0.172,0.102,north,4.5,Yes
2018/01/04,13:20,0.345,0.210,0.350,0.328,0.308,0.175,0.106,north,4.4,Yes
2018/01/04,13:30,0.347,0.212,0.350,0.328,0.310,0.176,0.106,north,3.8,Yes
2018/01/04,13:40,0.346,0.211,0.351,0.328,0.310,0.176,0.105,north,4.2,Yes
2018/01/04,13:50,0.346,0.210,0.349,0.329,0.309,0.176,0.107,north,2.0,No
2018/01/04,14:00,0.344,0.210,0.349,0.328,0.309,0.175,0.106,north,2.9,No
2018/01/04,14:10,0.344,0.209,0.349,0.328,0.308,0.175,0.104,north-northeast,1.9,No
2018/01/04,14:20,0.345,0.209,0.348,0.325,0.308,0.174,0.104,north,1.4,No
2018/01/04,14:30,0.343,0.208,0.346,0.327,0.308,0.173,0.104,east-northeast,1.0,Yes
2018/01/04,14:40,0.343,0.208,0.347,0.326,0.308,0.173,0.104,north,1.7,Yes
2018/01/04,14:50,0.344,0.207,0.348,0.325,0.307,0.173,0.104,north-northeast,1.4,No
2018/01/04,15:00,0.342,0.208,0.349,0.326,0.309,0.172,0.104,north-northeast,4.1,Yes
2018/01/04,15:10,0.343,0.208,0.346,0.326,0.307,0.172,0.103,north-northeast,4.9,Yes
2018/01/04,15:20,0.344,0.209,0.350,0.327,0.308,0.173,0.104,north-northwest,3.8,Yes
2018/01/04,15:30,0.344,0.210,0.350,0.328,0.309,0.173,0.104,north,5.4,Yes
2018/01/04,15:40,0.346,0.211,0.350,0.326,0.309,0.174,0.105,north,4.3,Yes
2018/01/04,15:50,0.345,0.210,0.349,0.327,0.308,0.174,0.104,north-northwest,3.8,No
2018/01/04,16:00,0.345,0.210,0.349,0.328,0.309,0.174,0.104,north-northwest,5.2,No
2018/01/04,16:10,0.346,0.210,0.350,0.328,0.308,0.174,0.103,north-northwest,4.0,Yes
2018/01/04,16:20,0.344,0.210,0.351,0.327,0.307,0.173,0.104,north-northwest,3.5,Yes
2018/01/04,16:30,0.344,0.209,0.348,0.326,0.306,0.174,0.103,north-northwest,4.6,Yes
2018/01/04,16:40,0.345,0.210,0.348,0.326,0.308,0.173,0.104,north-northwest,5.2,No
2018/01/04,16:50,0.345,0.211,0.350,0.326,0.307,0.173,0.104,north-northwest,4.5,No
2018/01/04,17:00,0.344,0.209,0.349,0.326,0.307,0.171,0.102,northwest,3.0,No
2018/01/04,17:10,0.341,0.208,0.348,0.325,0.309,0.172,0.103,northwest,2.6,No
2018/01/04,17:20,0.344,0.209,0.348,0.326,0.307,0.172,0.102,west-northwest,2.3,No
2018/01/04,17:30,0.343,0.208,0.347,0.326,0.307,0.171,0.102,west,2.2,No
2018/01/04,17:40,0.343,0.210,0.347,0.325,0.307,0.172,0.103,west-northwest,3.1,No
2018/01/04,17:50,0.342,0.208,0.346,0.326,0.308,0.173,0.102,north-northwest,2.8,No
2018/01/04,18:00,0.342,0.207,0.348,0.328,0.307,0.171,0.102,north-northwest,5.0,No
2018/01/04,18:10,0.344,0.209,0.347,0.326,0.306,0.172,0.103,north-northwest,4.1,No
2018/01/04,18:20,0.343,0.208,0.347,0.327,0.305,0.172,0.102,northwest,3.4,No
2018/01/04,18:30,0.345,0.209,0.349,0.327,0.305,0.172,0.102,northwest,4.3,No
2018/01/04,18:40,0.343,0.208,0.348,0.326,0.307,0.172,0.102,northwest,4.6,No
2018/01/04,18:50,0.342,0.207,0.346,0.325,0.305,0.172,0.102,north-northwest,5.7,No
2018/01/04,19:00,0.342,0.209,0.346,0.326,0.307,0.172,0.103,north-northwest,5.9,No
2018/01/04,19:10,0.343,0.208,0.347,0.326,0.305,0.171,0.102,north-northwest,3.3,No
2018/01/04,19:20,0.343,0.209,0.347,0.327,0.306,0.173,0.103,north-northwest,2.7,No
2018/01/04,19:30,0.343,0.208,0.347,0.326,0.306,0.172,0.102,north-northwest,4.8,No
2018/01/04,19:40,0.343,0.208,0.348,0.325,0.307,0.172,0.103,northwest,5.0,No
2018/01/04,19:50,0.342,0.208,0.348,0.327,0.306,0.171,0.102,northwest,5.0,No
2018/01/04,20:00,0.343,0.208,0.348,0.326,0.306,0.171,0.102,northwest,5.2,No
2018/01/04,20:10,0.341,0.208,0.348,0.326,0.306,0.172,0.103,northwest,5.9,No
2018/01/04,20:20,0.343,0.208,0.348,0.326,0.307,0.172,0.102,northwest,4.0,No
2018/01/04,20:30,0.341,0.210,0.348,0.325,0.307,0.171,0.103,west-northwest,1.3,No
2018/01/04,20:40,0.343,0.207,0.346,0.326,0.307,0.172,0.102,west,3.6,No
2018/01/04,20:50,0.344,0.207,0.347,0.326,0.304,0.172,0.103,west,4.1,No
2018/01/04,21:00,0.343,0.208,0.347,0.327,0.307,0.172,0.103,west-northwest,4.1,No
2018/01/04,21:10,0.342,0.208,0.349,0.326,0.306,0.171,0.102,west,3.9,No
2018/01/04,21:20,0.343,0.208,0.348,0.327,0.306,0.172,0.103,west,4.5,No
2018/01/04,21:30,0.342,0.208,0.348,0.326,0.307,0.172,0.102,west-northwest,4.8,No
2018/01/04,21:40,0.341,0.207,0.348,0.325,0.306,0.171,0.102,west,4.9,No
2018/01/04,21:50,0.344,0.208,0.348,0.325,0.305,0.171,0.102,west-northwest,4.2,No
2018/01/04,22:00,0.342,0.207,0.347,0.326,0.305,0.172,0.102,west,4.1,No
2018/01/04,22:10,0.342,0.208,0.348,0.326,0.305,0.171,0.103,west-northwest,4.8,No
2018/01/04,22:20,0.342,0.208,0.348,0.325,0.306,0.172,0.102,west-northwest,4.2,No
2018/01/04,22:30,0.343,0.208,0.346,0.326,0.306,0.172,0.103,west-northwest,4.5,No
2018/01/04,22:40,0.343,0.208,0.347,0.326,0.306,0.172,0.103,west-northwest,4.9,No
2018/01/04,22:50,0.343,0.207,0.347,0.325,0.304,0.170,0.102,northwest,4.2,No
2018/01/04,23:00,0.342,0.208,0.348,0.325,0.305,0.172,0.102,northwest,3.7,No
2018/01/04,23:10,0.342,0.208,0.349,0.324,0.305,0.171,0.103,west-northwest,3.9,No
2018/01/04,23:20,0.343,0.207,0.347,0.325,0.306,0.171,0.102,west-northwest,4.9,No
2018/01/04,23:30,0.342,0.207,0.347,0.326,0.307,0.171,0.103,northwest,4.6,No
2018/01/04,23:40,0.342,0.207,0.347,0.325,0.307,0.171,0.103,northwest,4.6,No
2018/01/04,23:50,0.342,0.208,0.347,0.326,0.305,0.171,0.102,northwest,4.9,No
